| time (UTC) | temp C | wind direction | speed KPH | gust KPH | rain 1hr cm | rain 24hr cm | rain mn cm | humidity % | barometer mb |
| 20260905134548 | 17 | 51 | 1.6 | 14.5 | 0.00 | 0.00 | 0.00 | 93 | 1011.3 |
| 20260905133047 | 16 | 273 | 1.6 | 9.7 | 0.00 | 0.00 | 0.00 | 93 | 1011.3 |
| 20260905131559 | 16 | 305 | 0.0 | 8.0 | 0.00 | 0.00 | 0.00 | 93 | 1011.1 |
| 20260905130049 | 16 | 49 | 0.0 | 4.8 | 0.00 | 0.00 | 0.00 | 93 | 1011.1 |
| 20260905124544 | 15 | 5 | 1.6 | 9.7 | 0.00 | 0.00 | 0.00 | 93 | 1011.0 |
| 20260905123043 | 15 | 355 | 0.0 | 3.2 | 0.00 | 0.00 | 0.00 | 93 | 1011.1 |
| 20260905121542 | 15 | 294 | 0.0 | 1.6 | 0.00 | 0.00 | 0.00 | 93 | 1010.9 |
| 20260905120042 | 15 | 294 | 0.0 | 0.0 | 0.00 | 0.00 | 0.00 | 93 | 1010.8 |
| 20260905114540 | 14 | 324 | 0.0 | 1.6 | 0.00 | 0.00 | 0.00 | 93 | 1010.8 |
| 20260905113038 | 14 | 324 | 0.0 | 0.0 | 0.00 | 0.00 | 0.00 | 93 | 1010.8 |
| 20260905111600 | 14 | 324 | 0.0 | 0.0 | 0.00 | 0.00 | 0.00 | 93 | 1010.6 |
| 20260905110036 | 14 | 324 | 0.0 | 0.0 | 0.00 | 0.00 | 0.00 | 93 | 1010.4 |
| 20260905104536 | 13 | 324 | 0.0 | 0.0 | 0.00 | 0.00 | 0.00 | 93 | 1010.3 |
| 20260905103035 | 13 | 324 | 0.0 | 0.0 | 0.00 | 0.00 | 0.00 | 93 | 1010.3 |
| 20260905101535 | 13 | 324 | 0.0 | 0.0 | 0.00 | 0.00 | 0.00 | 93 | 1010.3 |
| 20260905100034 | 13 | 324 | 0.0 | 0.0 | 0.00 | 0.00 | 0.00 | 92 | 1010.2 |
| 20260905094533 | 13 | 324 | 0.0 | 0.0 | 0.00 | 0.00 | 0.00 | 92 | 1010.2 |
| 20260905093036 | 13 | 324 | 0.0 | 0.0 | 0.00 | 0.00 | 0.00 | 92 | 1010.0 |
| 20260905091532 | 13 | 324 | 0.0 | 0.0 | 0.00 | 0.00 | 0.00 | 91 | 1010.0 |
| 20260905090031 | 13 | 324 | 0.0 | 0.0 | 0.00 | 0.00 | 0.00 | 91 | 1009.9 |
| 20260905084531 | 13 | 324 | 0.0 | 0.0 | 0.00 | 0.00 | 0.00 | 91 | 1009.9 |
| 20260905083028 | 13 | 324 | 0.0 | 0.0 | 0.00 | 0.00 | 0.00 | 91 | 1009.9 |
| 20260905081527 | 13 | 324 | 0.0 | 0.0 | 0.00 | 0.00 | 0.00 | 91 | 1010.0 |
| 20260905080026 | 13 | 324 | 0.0 | 0.0 | 0.00 | 0.00 | 0.00 | 90 | 1010.0 |
| 20260905074525 | 13 | 324 | 0.0 | 0.0 | 0.00 | 0.00 | 0.00 | 90 | 1009.8 |
| 20260905073025 | 14 | 324 | 0.0 | 0.0 | 0.00 | 0.00 | 0.00 | 90 | 1009.7 |
| 20260905071536 | 14 | 324 | 0.0 | 0.0 | 0.00 | 0.00 | 0.00 | 90 | 1009.8 |
| 20260905070018 | 15 | 324 | 0.0 | 0.0 | 0.00 | 0.00 | 0.00 | 90 | 1010.0 |
| 20260905064517 | 15 | 324 | 0.0 | 0.0 | 0.00 | 0.00 | 0.00 | 89 | 1010.1 |
| 20260905063014 | 15 | 324 | 0.0 | 0.0 | 0.00 | 0.00 | 0.00 | 88 | 1010.1 |
| 20260905061512 | 15 | 324 | 0.0 | 0.0 | 0.00 | 0.00 | 0.00 | 88 | 1010.3 |
| 20260905060011 | 15 | 324 | 0.0 | 0.0 | 0.00 | 0.00 | 0.00 | 88 | 1010.4 |
| 20260905054527 | 16 | 324 | 0.0 | 0.0 | 0.00 | 0.00 | 0.00 | 88 | 1010.2 |
| 20260905053007 | 16 | 324 | 0.0 | 0.0 | 0.00 | 0.00 | 0.00 | 88 | 1010.3 |
| 20260905051506 | 16 | 324 | 0.0 | 0.0 | 0.00 | 0.00 | 0.00 | 87 | 1010.2 |
| 20260905050005 | 16 | 324 | 0.0 | 0.0 | 0.00 | 0.00 | 0.00 | 87 | 1010.3 |
| 20260905044502 | 16 | 324 | 0.0 | 0.0 | 0.00 | 0.00 | 0.00 | 86 | 1010.3 |
| 20260905043100 | 17 | 324 | 0.0 | 0.0 | 0.00 | 0.00 | 0.00 | 86 | 1010.5 |
| 20260905041556 | 17 | 324 | 0.0 | 0.0 | 0.00 | 0.00 | 0.00 | 85 | 1010.6 |
| 20260905040055 | 17 | 324 | 0.0 | 0.0 | 0.00 | 0.00 | 0.00 | 83 | 1010.5 |
| 20260905034555 | 17 | 324 | 0.0 | 0.0 | 0.00 | 0.00 | 0.00 | 82 | 1010.5 |
| 20260905033101 | 18 | 324 | 0.0 | 0.0 | 0.00 | 0.00 | 0.00 | 82 | 1010.4 |
| 20260905031554 | 18 | 324 | 0.0 | 0.0 | 0.00 | 0.00 | 0.00 | 82 | 1010.1 |
| 20260905030053 | 18 | 324 | 0.0 | 0.0 | 0.00 | 0.00 | 0.00 | 81 | 1010.4 |
| 20260905024604 | 18 | 324 | 0.0 | 0.0 | 0.00 | 0.00 | 0.00 | 80 | 1010.4 |
| 20260905023058 | 18 | 324 | 0.0 | 3.2 | 0.00 | 0.00 | 0.00 | 80 | 1010.4 |
| 20260905021552 | 18 | 325 | 0.0 | 1.6 | 0.00 | 0.00 | 0.00 | 79 | 1010.6 |
| 20260905020104 | 18 | 324 | 0.0 | 0.0 | 0.00 | 0.00 | 0.00 | 79 | 1010.7 |
| 20260905014553 | 19 | 324 | 0.0 | 3.2 | 0.00 | 0.00 | 0.00 | 79 | 1010.6 |
| 20260905013051 | 19 | 324 | 0.0 | 0.0 | 0.00 | 0.00 | 0.00 | 79 | 1010.7 |
| 20260905011551 | 19 | 324 | 0.0 | 0.0 | 0.00 | 0.00 | 0.00 | 79 | 1010.7 |
| 20260905010049 | 20 | 324 | 0.0 | 1.6 | 0.00 | 0.00 | 0.00 | 78 | 1010.5 |
| 20260905004550 | 20 | 325 | 0.0 | 1.6 | 0.00 | 0.00 | 0.00 | 79 | 1010.6 |
| 20260905003049 | 20 | 327 | 0.0 | 1.6 | 0.00 | 0.00 | 0.00 | 78 | 1010.5 |
| 20260905001548 | 20 | 327 | 0.0 | 4.8 | 0.00 | 0.00 | 0.00 | 78 | 1010.6 |
| 20260905000048 | 20 | 13 | 3.2 | 8.0 | 0.00 | 0.00 | 0.00 | 77 | 1010.4 |
| 20260904234547 | 21 | 342 | 0.0 | 4.8 | 0.00 | 0.00 | 0.00 | 76 | 1010.0 |
| 20260904233051 | 21 | 333 | 0.0 | 0.0 | 0.00 | 0.00 | 0.00 | 76 | 1010.0 |
| 20260904231546 | 21 | 333 | 0.0 | 0.0 | 0.00 | 0.00 | 0.00 | 74 | 1009.8 |
| 20260904230046 | 21 | 333 | 0.0 | 1.6 | 0.00 | 0.00 | 0.00 | 73 | 1009.9 |
| 20260904224600 | 22 | 333 | 0.0 | 3.2 | 0.00 | 0.00 | 0.00 | 72 | 1009.8 |
| 20260904223048 | 22 | 327 | 0.0 | 1.6 | 0.00 | 0.00 | 0.00 | 73 | 1009.7 |
| 20260904221548 | 22 | 295 | 0.0 | 1.6 | 0.00 | 0.00 | 0.00 | 73 | 1009.7 |
| 20260904220044 | 22 | 295 | 0.0 | 1.6 | 0.00 | 0.00 | 0.00 | 73 | 1009.7 |
| 20260904214546 | 22 | 294 | 0.0 | 1.6 | 0.00 | 0.00 | 0.00 | 72 | 1009.7 |
| 20260904213042 | 22 | 294 | 0.0 | 1.6 | 0.00 | 0.00 | 0.00 | 70 | 1009.7 |
| 20260904211541 | 22 | 294 | 0.0 | 1.6 | 0.00 | 0.00 | 0.00 | 69 | 1009.8 |
| 20260904210049 | 23 | 319 | 0.0 | 4.8 | 0.00 | 0.00 | 0.00 | 68 | 1009.9 |
| 20260904204539 | 23 | 249 | 0.0 | 8.0 | 0.00 | 0.00 | 0.00 | 68 | 1009.9 |
| 20260904203039 | 23 | 346 | 0.0 | 6.4 | 0.00 | 0.00 | 0.00 | 66 | 1009.9 |
| 20260904201550 | 23 | 298 | 1.6 | 9.7 | 0.00 | 0.00 | 0.00 | 64 | 1010.0 |
| 20260904200038 | 23 | 326 | 0.0 | 4.8 | 0.00 | 0.00 | 0.00 | 65 | 1009.9 |
| 20260904194544 | 23 | 258 | 0.0 | 4.8 | 0.00 | 0.00 | 0.00 | 66 | 1009.9 |
| 20260904193036 | 23 | 11 | 1.6 | 8.0 | 0.00 | 0.00 | 0.00 | 67 | 1009.9 |
| 20260904191537 | 23 | 283 | 1.6 | 9.7 | 0.00 | 0.00 | 0.00 | 64 | 1010.0 |
| 20260904190034 | 23 | 232 | 1.6 | 9.7 | 0.00 | 0.00 | 0.00 | 65 | 1010.1 |
| 20260904184534 | 23 | 344 | 1.6 | 9.7 | 0.00 | 0.00 | 0.00 | 64 | 1010.4 |
| 20260904183033 | 23 | 309 | 4.8 | 12.9 | 0.00 | 0.00 | 0.00 | 64 | 1010.4 |
| 20260904181533 | 23 | 304 | 0.0 | 12.9 | 0.00 | 0.00 | 0.00 | 65 | 1010.2 |
| 20260904180034 | 23 | 28 | 3.2 | 12.9 | 0.00 | 0.00 | 0.00 | 65 | 1010.3 |
| 20260904174532 | 23 | 293 | 1.6 | 8.0 | 0.00 | 0.00 | 0.00 | 64 | 1010.3 |
| 20260904173030 | 23 | 69 | 1.6 | 12.9 | 0.00 | 0.00 | 0.00 | 65 | 1010.3 |
| 20260904171534 | 23 | 154 | 1.6 | 9.7 | 0.00 | 0.00 | 0.00 | 64 | 1010.2 |
| 20260904170027 | 23 | 348 | 1.6 | 12.9 | 0.00 | 0.00 | 0.00 | 66 | 1010.2 |
| 20260904164525 | 22 | 335 | 1.6 | 11.3 | 0.00 | 0.00 | 0.00 | 67 | 1010.5 |
| 20260904163030 | 22 | 218 | 1.6 | 14.5 | 0.00 | 0.00 | 0.00 | 69 | 1010.5 |
| 20260904161522 | 22 | 253 | 0.0 | 8.0 | 0.00 | 0.00 | 0.00 | 70 | 1010.6 |
| 20260904160021 | 22 | 294 | 1.6 | 14.5 | 0.00 | 0.00 | 0.00 | 71 | 1010.9 |
| 20260904154520 | 22 | 315 | 3.2 | 14.5 | 0.00 | 0.00 | 0.00 | 69 | 1011.1 |
| 20260904153021 | 21 | 337 | 4.8 | 16.1 | 0.00 | 0.00 | 0.00 | 71 | 1011.1 |
| 20260904151516 | 21 | 317 | 0.0 | 6.4 | 0.00 | 0.00 | 0.00 | 72 | 1011.0 |
| 20260904150025 | 21 | 5 | 0.0 | 9.7 | 0.00 | 0.00 | 0.00 | 75 | 1011.2 |
| 20260904144510 | 20 | 294 | 1.6 | 12.9 | 0.00 | 0.00 | 0.00 | 78 | 1011.1 |
| 20260904143006 | 20 | 28 | 3.2 | 8.0 | 0.00 | 0.00 | 0.00 | 85 | 1011.1 |
| 20260904141503 | 18 | 24 | 3.2 | 8.0 | 0.00 | 0.00 | 0.00 | 91 | 1011.1 |